GW4807 Weather Reports


Display with metric or nautical units.
time (UTC)temp
F
wind
direction
speed
MPH
gust
MPH
rain 1hr
in
rain 24hr
in
rain mn
in
humidity
%
barometer
mb
20260902034322 74 127 0.0 0.0 0.00 0.00 0.00 84 1010.9
20260902033819 75 123 0.0 0.0 0.00 0.00 0.00 83 1011.1
20260902033316 75 135 0.0 1.0 0.00 0.00 0.00 83 1010.8
20260902032814 75 123 0.0 0.0 0.00 0.00 0.00 82 1011.0
20260902032309 75 127 0.0 0.0 0.00 0.00 0.00 82 1010.9
20260902031809 76 137 1.0 1.0 0.00 0.00 0.00 83 1010.9
20260902031305 75 124 1.0 2.0 0.00 0.00 0.00 80 1010.8
20260902030801 75 130 0.0 0.0 0.00 0.00 0.00 80 1010.8
20260902030255 75 130 0.0 0.0 0.00 0.00 0.00 79 1010.6
20260902025754 76 130 0.0 0.0 0.00 0.00 0.00 79 1010.6
20260902025249 76 130 0.0 0.0 0.00 0.00 0.00 79 1010.4
20260902024744 76 130 0.0 0.0 0.00 0.00 0.00 79 1010.5
20260902024240 76 130 0.0 0.0 0.00 0.00 0.00 79 1010.3
20260902023736 77 130 0.0 0.0 0.00 0.00 0.00 78 1010.2
20260902023231 77 130 0.0 0.0 0.00 0.00 0.00 78 1010.2
20260902022730 77 130 0.0 0.0 0.00 0.00 0.00 77 1010.2
20260902022226 77 130 0.0 0.0 0.00 0.00 0.00 76 1010.2
20260902021721 78 130 0.0 0.0 0.00 0.00 0.00 76 1010.3
20260902021221 78 130 0.0 0.0 0.00 0.00 0.00 75 1010.0
20260902020717 78 130 0.0 0.0 0.00 0.00 0.00 75 1009.8
20260902020213 78 131 0.0 0.0 0.00 0.00 0.00 75 1010.0
20260902015708 79 130 0.0 0.0 0.00 0.00 0.00 74 1010.0
20260902015205 79 130 0.0 0.0 0.00 0.00 0.00 73 1009.8
20260902014701 80 130 0.0 0.0 0.00 0.00 0.00 72 1010.0
20260902014156 80 131 0.0 0.0 0.00 0.00 0.00 72 1009.7
20260902013655 80 131 0.0 0.0 0.00 0.00 0.00 71 1009.7
20260902013151 80 131 0.0 0.0 0.00 0.00 0.00 70 1009.8
20260902012646 81 131 0.0 0.0 0.00 0.00 0.00 70 1009.7
20260902012142 81 131 0.0 0.0 0.00 0.00 0.00 69 1009.8
20260902011637 81 131 0.0 0.0 0.00 0.00 0.00 68 1009.8
20260902011136 82 131 0.0 0.0 0.00 0.00 0.00 68 1009.8
20260902010636 82 131 0.0 0.0 0.00 0.00 0.00 67 1009.5
20260902010132 83 131 0.0 0.0 0.00 0.00 0.00 66 1009.6
20260902005630 83 131 0.0 0.0 0.00 0.00 0.00 65 1009.7
20260902005126 84 131 0.0 0.0 0.00 0.00 0.00 64 1009.7
20260902004625 84 131 0.0 0.0 0.00 0.00 0.00 63 1009.8
20260902004120 85 131 0.0 0.0 0.00 0.00 0.00 62 1009.6
20260902003615 85 131 0.0 0.0 0.00 0.00 0.00 61 1009.7
20260902003111 86 130 0.0 0.0 0.00 0.00 0.00 61 1009.8
20260902002606 87 136 1.0 1.0 0.00 0.00 0.00 59 1009.7
20260902002102 87 141 1.0 1.0 0.00 0.00 0.00 58 1009.9
20260902001556 88 132 0.0 0.0 0.00 0.00 0.00 57 1009.7
20260902001051 89 129 0.0 0.0 0.00 0.00 0.00 55 1010.0
20260902000546 90 140 1.0 1.0 0.00 0.00 0.00 54 1009.8
20260902000042 91 136 0.0 0.0 0.00 0.00 0.00 51 1009.8
20260901235541 92 177 2.0 2.0 0.00 0.00 0.00 48 1009.9
20260901235037 93 142 1.0 1.0 0.00 0.00 0.00 48 1009.7
20260901234536 95 134 0.0 1.0 0.00 0.00 0.00 45 1009.9
20260901234032 95 130 1.0 1.0 0.00 0.00 0.00 43 1010.0
20260901233531 96 155 1.0 1.0 0.00 0.00 0.00 43 1009.8
20260901233027 97 132 0.0 1.0 0.00 0.00 0.00 41 1010.0
20260901232523 98 112 1.0 1.0 0.00 0.00 0.00 40 1009.8
20260901232018 98 108 0.0 0.0 0.00 0.00 0.00 40 1009.9
20260901231514 99 132 1.0 1.0 0.00 0.00 0.00 39 1010.0
20260901231011 99 121 0.0 0.0 0.00 0.00 0.00 39 1009.9
20260901230510 99 161 2.0 3.0 0.00 0.00 0.00 38 1010.1
20260901230005 99 196 2.0 2.0 0.00 0.00 0.00 38 1009.7
20260901225500 100 209 1.0 1.0 0.00 0.00 0.00 38 1009.8
20260901224954 101 165 3.0 5.0 0.00 0.00 0.00 37 1010.0
20260901224450 101 108 1.0 1.0 0.00 0.00 0.00 37 1009.8
20260901223946 100 139 1.0 1.0 0.00 0.00 0.00 37 1009.9
20260901223442 100 171 3.0 3.0 0.00 0.00 0.00 37 1009.9
20260901222937 100 26 2.0 3.0 0.00 0.00 0.00 38 1009.7
20260901222433 99 126 1.0 1.0 0.00 0.00 0.00 39 1009.8
20260901221929 102 106 1.0 1.0 0.00 0.00 0.00 36 1009.9
20260901221425 101 130 0.0 0.0 0.00 0.00 0.00 37 1009.8
20260901220920 99 122 1.0 2.0 0.00 0.00 0.00 38 1009.8
20260901220419 101 108 2.0 2.0 0.00 0.00 0.00 37 1009.8
20260901215918 100 116 3.0 3.0 0.00 0.00 0.00 36 1010.1
20260901215416 101 62 2.0 3.0 0.00 0.00 0.00 37 1009.8
20260901214916 99 106 0.0 1.0 0.00 0.00 0.00 38 1010.0
20260901214414 100 105 2.0 2.0 0.00 0.00 0.00 38 1009.9
20260901213914 100 131 0.0 1.0 0.00 0.00 0.00 37 1009.7
20260901213409 101 110 2.0 2.0 0.00 0.00 0.00 38 1009.9
20260901212908 101 89 2.0 2.0 0.00 0.00 0.00 37 1010.1
20260901212404 99 152 2.0 3.0 0.00 0.00 0.00 39 1010.1
20260901211900 100 107 1.0 1.0 0.00 0.00 0.00 37 1010.1
20260901211350 99 67 3.0 3.0 0.00 0.00 0.00 38 1010.2
20260901210845 100 97 3.0 3.0 0.00 0.00 0.00 37 1010.5
20260901210340 99 134 1.0 1.0 0.00 0.00 0.00 38 1010.5
20260901205837 100 147 1.0 1.0 0.00 0.00 0.00 37 1010.5
20260901205331 103 218 3.0 5.0 0.00 0.00 0.00 34 1010.3
20260901204827 102 158 1.0 2.0 0.00 0.00 0.00 35 1010.3
20260901204323 102 148 1.0 2.0 0.00 0.00 0.00 35 1010.5
20260901203822 102 143 1.0 2.0 0.00 0.00 0.00 35 1010.5
20260901203317 101 172 2.0 2.0 0.00 0.00 0.00 37 1010.4
20260901202812 100 148 2.0 2.0 0.00 0.00 0.00 38 1010.6
20260901202307 100 145 0.0 1.0 0.00 0.00 0.00 39 1010.6
20260901201803 101 176 2.0 2.0 0.00 0.00 0.00 38 1010.7
20260901201302 102 329 3.0 5.0 0.00 0.00 0.00 36 1010.9
20260901200756 100 93 1.0 2.0 0.00 0.00 0.00 36 1010.9
20260901200252 101 208 5.0 6.0 0.00 0.00 0.00 34 1011.0
20260901195749 102 88 1.0 2.0 0.00 0.00 0.00 36 1010.9
20260901195244 101 133 0.0 0.0 0.00 0.00 0.00 38 1011.0
20260901194739 102 124 1.0 1.0 0.00 0.00 0.00 37 1010.9
20260901194234 101 134 0.0 0.0 0.00 0.00 0.00 38 1011.1
20260901193731 100 186 3.0 3.0 0.00 0.00 0.00 38 1010.9
20260901193229 98 143 2.0 2.0 0.00 0.00 0.00 42 1011.2
20260901192724 99 133 0.0 0.0 0.00 0.00 0.00 40 1011.2
20260901192220 100 168 1.0 2.0 0.00 0.00 0.00 41 1011.2
20260901191715 100 111 2.0 2.0 0.00 0.00 0.00 40 1011.3
20260901191211 99 128 0.0 0.0 0.00 0.00 0.00 42 1011.3
20260901190707 99 170 2.0 2.0 0.00 0.00 0.00 41 1011.5
20260901190206 100 208 3.0 3.0 0.00 0.00 0.00 40 1011.4
20260901185705 100 169 3.0 5.0 0.00 0.00 0.00 40 1011.3
20260901185203 100 127 0.0 0.0 0.00 0.00 0.00 39 1011.8
20260901184659 100 161 3.0 5.0 0.00 0.00 0.00 40 1011.7
20260901184154 99 180 1.0 2.0 0.00 0.00 0.00 40 1011.8
20260901183644 98 175 2.0 2.0 0.00 0.00 0.00 43 1011.8
20260901183144 98 136 2.0 2.0 0.00 0.00 0.00 41 1012.1
20260901182640 98 125 1.0 2.0 0.00 0.00 0.00 42 1012.2
20260901182138 97 316 3.0 3.0 0.00 0.00 0.00 44 1012.2
20260901181633 95 175 3.0 3.0 0.00 0.00 0.00 47 1012.2
20260901181128 96 163 1.0 1.0 0.00 0.00 0.00 46 1012.3
20260901180622 96 324 2.0 2.0 0.00 0.00 0.00 45 1012.1
20260901180116 95 150 1.0 2.0 0.00 0.00 0.00 46 1012.4
20260901175615 95 176 3.0 3.0 0.00 0.00 0.00 46 1012.3
20260901175110 94 326 2.0 3.0 0.00 0.00 0.00 49 1012.8
20260901174606 93 158 2.0 3.0 0.00 0.00 0.00 48 1012.6
20260901174101 93 158 1.0 2.0 0.00 0.00 0.00 49 1012.8
20260901173555 94 122 0.0 1.0 0.00 0.00 0.00 48 1012.8
20260901173051 94 163 3.0 3.0 0.00 0.00 0.00 49 1012.8
20260901172547 93 30 2.0 3.0 0.00 0.00 0.00 49 1013.0
20260901172044 93 133 1.0 1.0 0.00 0.00 0.00 49 1012.9
20260901171538 94 149 2.0 3.0 0.00 0.00 0.00 48 1013.1
20260901171037 93 144 3.0 3.0 0.00 0.00 0.00 49 1013.1
20260901170532 93 210 3.0 3.0 0.00 0.00 0.00 50 1012.8
20260901170026 93 201 5.0 6.0 0.00 0.00 0.00 49 1013.0
20260901165521 93 309 3.0 5.0 0.00 0.00 0.00 50 1013.0
20260901165016 93 192 5.0 8.0 0.00 0.00 0.00 49 1013.0
20260901164512 93 135 1.0 2.0 0.00 0.00 0.00 50 1013.3
20260901164007 93 217 4.0 6.0 0.00 0.00 0.00 50 1013.1
20260901163502 92 246 3.0 3.0 0.00 0.00 0.00 52 1013.1
20260901163001 93 191 4.0 5.0 0.00 0.00 0.00 51 1013.1
20260901162457 92 201 4.0 5.0 0.00 0.00 0.00 52 1013.3
20260901161955 92 100 2.0 2.0 0.00 0.00 0.00 53 1013.4
20260901161455 91 131 1.0 2.0 0.00 0.00 0.00 54 1013.3
20260901160950 91 127 1.0 2.0 0.00 0.00 0.00 55 1013.5
20260901160446 91 189 2.0 3.0 0.00 0.00 0.00 55 1013.4
20260901155944 91 135 1.0 1.0 0.00 0.00 0.00 55 1013.2
20260901155444 90 175 3.0 3.0 0.00 0.00 0.00 58 1013.3
20260901154941 90 143 0.0 1.0 0.00 0.00 0.00 59 1013.2
20260901154440 90 223 3.0 5.0 0.00 0.00 0.00 60 1013.2
20260901153935 89 123 1.0 1.0 0.00 0.00 0.00 61 1013.3
20260901153430 89 177 4.0 5.0 0.00 0.00 0.00 61 1013.4
20260901152930 88 164 3.0 5.0 0.00 0.00 0.00 62 1013.2
20260901152429 87 180 3.0 5.0 0.00 0.00 0.00 63 1013.2
20260901151929 87 147 1.0 2.0 0.00 0.00 0.00 64 1013.2
20260901151424 87 181 5.0 7.0 0.00 0.00 0.00 63 1013.5
20260901150923 87 148 3.0 6.0 0.00 0.00 0.00 63 1013.6
20260901150421 86 160 1.0 2.0 0.00 0.00 0.00 64 1013.4
20260901145918 86 183 5.0 6.0 0.00 0.00 0.00 64 1013.6
20260901145413 86 315 3.0 5.0 0.00 0.00 0.00 66 1013.4
20260901144908 86 201 2.0 2.0 0.00 0.00 0.00 66 1013.4
20260901144404 86 161 3.0 3.0 0.00 0.00 0.00 66 1013.4
20260901143859 85 162 3.0 3.0 0.00 0.00 0.00 67 1013.5
20260901143355 85 167 4.0 6.0 0.00 0.00 0.00 68 1013.4
20260901142852 84 137 2.0 2.0 0.00 0.00 0.00 69 1013.6
20260901142350 84 145 3.0 6.0 0.00 0.00 0.00 70 1013.5
20260901141846 84 169 1.0 2.0 0.00 0.00 0.00 71 1013.6
20260901141341 84 156 2.0 2.0 0.00 0.00 0.00 73 1013.5
20260901140839 83 143 0.0 1.0 0.00 0.00 0.00 73 1013.6
20260901140338 83 158 1.0 1.0 0.00 0.00 0.00 73 1013.3
20260901135833 82 124 1.0 1.0 0.00 0.00 0.00 74 1013.5
20260901135328 82 126 0.0 0.0 0.00 0.00 0.00 75 1013.5
20260901134824 82 161 1.0 1.0 0.00 0.00 0.00 74 1013.8
20260901134319 83 143 0.0 1.0 0.00 0.00 0.00 73 1013.6
20260901133813 82 123 0.0 0.0 0.00 0.00 0.00 75 1013.6
20260901133312 81 108 1.0 1.0 0.00 0.00 0.00 75 1013.6
20260901132811 81 102 1.0 1.0 0.00 0.00 0.00 76 1013.6
20260901132307 81 137 0.0 1.0 0.00 0.00 0.00 76 1013.6
20260901131805 80 121 0.0 0.0 0.00 0.00 0.00 80 1013.5
20260901131300 78 137 0.0 1.0 0.00 0.00 0.00 81 1013.5
20260901130755 77 112 0.0 1.0 0.00 0.00 0.00 84 1013.5
20260901130255 75 114 0.0 1.0 0.00 0.00 0.00 86 1013.6
20260901125753 74 122 0.0 0.0 0.00 0.00 0.00 90 1013.5
20260901125247 72 120 0.0 0.0 0.00 0.00 0.00 93 1013.6
20260901124742 70 114 0.0 0.0 0.00 0.00 0.00 99 1013.3
20260901124237 70 108 0.0 1.0 0.00 0.00 0.00 99 1013.3
20260901123737 68 120 0.0 0.0 0.00 0.00 0.00 99 1013.2
20260901123232 68 119 0.0 0.0 0.00 0.00 0.00 99 1013.2
20260901122731 67 117 0.0 0.0 0.00 0.00 0.00 99 1013.1
20260901122225 67 118 0.0 0.0 0.00 0.00 0.00 99 1013.1
20260901121719 66 123 0.0 0.0 0.00 0.00 0.00 99 1013.1
20260901121215 66 122 0.0 0.0 0.00 0.00 0.00 99 1012.9
20260901120714 66 121 0.0 0.0 0.00 0.00 0.00 99 1013.0
20260901120209 66 121 0.0 0.0 0.00 0.00 0.00 99 1013.0
20260901115704 66 121 0.0 0.0 0.00 0.00 0.00 99 1013.1
20260901115201 66 121 0.0 0.0 0.00 0.00 0.00 99 1013.0
20260901114657 66 121 0.0 0.0 0.00 0.00 0.00 99 1012.8
20260901114156 66 122 0.0 0.0 0.00 0.00 0.00 99 1012.8
20260901113655 66 121 0.0 0.0 0.00 0.00 0.00 99 1012.7
20260901113151 66 121 0.0 0.0 0.00 0.00 0.00 99 1012.7
20260901112645 66 122 0.0 0.0 0.00 0.00 0.00 99 1012.5
20260901112145 66 120 0.0 0.0 0.00 0.00 0.00 99 1012.6
20260901111644 66 121 0.0 0.0 0.00 0.00 0.00 99 1012.6
20260901111144 66 121 0.0 0.0 0.00 0.00 0.00 99 1012.5
20260901110639 66 120 0.0 0.0 0.00 0.00 0.00 99 1012.6
20260901110134 66 120 0.0 0.0 0.00 0.00 0.00 99 1012.3
20260901105631 66 121 0.0 0.0 0.00 0.00 0.00 99 1012.5
20260901105129 66 121 0.0 0.0 0.00 0.00 0.00 99 1012.4
20260901104626 66 121 0.0 0.0 0.00 0.00 0.00 99 1012.2
20260901104121 66 121 0.0 0.0 0.00 0.00 0.00 99 1012.4
20260901103620 66 121 0.0 0.0 0.00 0.00 0.00 99 1012.3
20260901103116 66 121 0.0 0.0 0.00 0.00 0.00 99 1012.4
20260901102610 66 120 0.0 0.0 0.00 0.00 0.00 98 1012.5
20260901102105 66 121 0.0 0.0 0.00 0.00 0.00 98 1012.2
20260901101601 66 121 0.0 0.0 0.00 0.00 0.00 98 1012.3
20260901101100 66 122 0.0 0.0 0.00 0.00 0.00 98 1012.2
20260901100600 66 122 0.0 0.0 0.00 0.00 0.00 98 1012.2
20260901100054 66 122 0.0 0.0 0.00 0.00 0.00 98 1012.2
20260901095553 66 122 0.0 0.0 0.00 0.00 0.00 97 1012.1
20260901095050 66 121 0.0 0.0 0.00 0.00 0.00 97 1012.2
20260901094546 66 121 0.0 0.0 0.00 0.00 0.00 97 1012.0
20260901094045 67 121 0.0 0.0 0.00 0.00 0.00 97 1012.3
20260901093540 67 122 0.0 0.0 0.00 0.00 0.00 97 1012.2
20260901093035 67 124 0.0 0.0 0.00 0.00 0.00 97 1012.2
20260901092531 67 123 0.0 0.0 0.00 0.00 0.00 97 1012.1
20260901092026 67 122 0.0 0.0 0.00 0.00 0.00 96 1012.1
20260901091521 67 123 0.0 0.0 0.00 0.00 0.00 96 1012.1
20260901091016 67 122 0.0 0.0 0.00 0.00 0.00 96 1012.0
20260901090515 67 120 0.0 0.0 0.00 0.00 0.00 96 1012.0
20260901090011 67 120 0.0 0.0 0.00 0.00 0.00 96 1012.0
20260901085507 67 121 0.0 0.0 0.00 0.00 0.00 96 1011.9
20260901085003 67 122 0.0 0.0 0.00 0.00 0.00 96 1012.0
20260901084458 67 123 0.0 0.0 0.00 0.00 0.00 96 1012.0
20260901083954 67 122 0.0 0.0 0.00 0.00 0.00 95 1012.0
20260901083448 67 124 0.0 0.0 0.00 0.00 0.00 95 1012.2
20260901082947 67 124 0.0 0.0 0.00 0.00 0.00 95 1011.8
20260901082441 67 121 0.0 0.0 0.00 0.00 0.00 95 1012.0
20260901081937 67 122 0.0 0.0 0.00 0.00 0.00 94 1011.9
20260901081431 67 122 0.0 0.0 0.00 0.00 0.00 94 1011.9
20260901080926 68 121 0.0 0.0 0.00 0.00 0.00 94 1012.2
20260901080421 68 121 0.0 0.0 0.00 0.00 0.00 94 1011.9
20260901075921 68 121 0.0 0.0 0.00 0.00 0.00 94 1011.9
20260901075416 68 120 0.0 0.0 0.00 0.00 0.00 93 1011.9
20260901074915 68 122 0.0 0.0 0.00 0.00 0.00 93 1011.9
20260901074410 68 125 0.0 0.0 0.00 0.00 0.00 93 1011.8
20260901073906 68 124 0.0 0.0 0.00 0.00 0.00 93 1011.8
20260901073402 68 124 0.0 0.0 0.00 0.00 0.00 92 1011.8
20260901072857 68 122 0.0 0.0 0.00 0.00 0.00 92 1011.8
20260901072357 68 122 0.0 0.0 0.00 0.00 0.00 92 1011.8
20260901071852 68 121 0.0 0.0 0.00 0.00 0.00 91 1012.1
20260901071350 68 120 0.0 0.0 0.00 0.00 0.00 91 1012.0
20260901070850 68 122 0.0 0.0 0.00 0.00 0.00 91 1012.0
20260901070346 68 124 0.0 0.0 0.00 0.00 0.00 91 1011.7
20260901065844 68 124 0.0 0.0 0.00 0.00 0.00 91 1011.9
20260901065339 68 122 0.0 0.0 0.00 0.00 0.00 90 1011.8
20260901064835 69 122 0.0 0.0 0.00 0.00 0.00 90 1011.8
20260901064331 69 122 0.0 0.0 0.00 0.00 0.00 90 1011.8
20260901063829 69 122 0.0 0.0 0.00 0.00 0.00 89 1011.9
20260901063325 69 122 0.0 0.0 0.00 0.00 0.00 89 1011.9
20260901062821 69 122 0.0 0.0 0.00 0.00 0.00 89 1011.7
20260901062317 69 124 0.0 0.0 0.00 0.00 0.00 89 1011.9
20260901061812 69 124 0.0 0.0 0.00 0.00 0.00 89 1011.9
20260901061307 69 124 0.0 0.0 0.00 0.00 0.00 88 1012.1
20260901060802 69 124 0.0 0.0 0.00 0.00 0.00 88 1012.0
20260901060258 69 124 0.0 0.0 0.00 0.00 0.00 88 1012.2
20260901055752 70 125 0.0 0.0 0.00 0.00 0.00 87 1011.9
20260901055249 70 124 0.0 0.0 0.00 0.00 0.00 87 1011.9
20260901054746 70 127 0.0 0.0 0.00 0.00 0.00 87 1012.1
20260901054242 70 125 0.0 0.0 0.00 0.00 0.00 87 1011.9
20260901053738 70 122 0.0 0.0 0.00 0.00 0.00 87 1011.8
20260901053233 70 123 0.0 0.0 0.00 0.00 0.00 86 1011.8
20260901052728 70 125 0.0 0.0 0.00 0.00 0.00 86 1011.8
20260901052224 70 124 0.0 0.0 0.00 0.00 0.00 86 1011.5
20260901051722 70 124 0.0 0.0 0.00 0.00 0.00 85 1011.7
20260901051216 71 124 0.0 0.0 0.00 0.00 0.00 85 1011.7
20260901050712 71 124 0.0 0.0 0.00 0.00 0.00 85 1011.8
20260901050207 71 124 0.0 0.0 0.00 0.00 0.00 85 1011.7
20260901045702 71 122 0.0 0.0 0.00 0.00 0.00 84 1011.7
20260901045157 71 122 0.0 0.0 0.00 0.00 0.00 83 1011.8
20260901044652 71 122 0.0 0.0 0.00 0.00 0.00 83 1011.4
20260901044149 71 122 0.0 0.0 0.00 0.00 0.00 83 1011.9
20260901043644 72 123 0.0 0.0 0.00 0.00 0.00 82 1011.7
20260901043140 72 124 0.0 0.0 0.00 0.00 0.00 82 1011.5
20260901042638 72 125 0.0 0.0 0.00 0.00 0.00 82 1011.8
20260901042134 72 130 0.0 0.0 0.00 0.00 0.00 82 1011.7
20260901041630 72 127 0.0 0.0 0.00 0.00 0.00 82 1011.7
20260901041125 72 125 0.0 0.0 0.00 0.00 0.00 81 1011.9
20260901040624 72 129 0.0 0.0 0.00 0.00 0.00 82 1011.5
20260901040123 72 126 0.0 0.0 0.00 0.00 0.00 81 1011.5
20260901035621 73 126 0.0 0.0 0.00 0.00 0.00 80 1011.4
20260901035120 73 119 0.0 0.0 0.00 0.00 0.00 80 1011.5
20260901034615 73 124 0.0 0.0 0.00 0.00 0.00 80 1011.2